SCP
0 0 0 0 0 0 0 0 0 0 0 0 0 0 0 0 0 0 0 0 0 0 0 -0 -0 -0 -0 0 0 0 0 0 0 0 0 0 0 0 0 0 0 0 0
0 0 0 1 1 0 0 0 0 0 0 0 0 0 0 0 0 0 0 0 0 0 0 0 0 0 0 0 0 0 0 0 0 0 0 0 0 0 0 0 0 0 0
0 0 0 1 1 1 0 0 0 0 0 0 0 0 0 0 0 0 0 0 0 0 0 0 0 0 0 0 0 0 0 0 0 0 0 0 0 0 0 0 0 0 0
0 0 1 1 1 1 0 0 0 0 0 0 0 0 0 0 0 0 0 0 0 0 0 0 0 0 0 0 0 0 0 0 0 0 0 0 0 0 0 0 0 0 0
1 1 1 1 1 1 1 0 0 0 0 0 0 0 0 0 0 0 0 0 0 0 0 0 0 0 0 0 0 0 0 0 0 0 0 0 0 0 0 0 0 0 0
1 1 1 1 1 1 1 0 0 0 0 0 0 0 0 0 0 0 0 0 0 0 0 0 0 0 0 0 0 0 0 0 0 0 0 0 0 0 0 0 0 0 0
1 1 1 1 1 1 1 0 0 0 0 0 0 0 0 0 0 0 0 0 0 0 0 0 0 0 0 0 0 0 0 0 0 0 0 0 0 0 0 0 0 0 0
1 1 1 1 1 1 1 1 1 1 1 1 1 1 1 0 0 0 0 0 0 0 0 0 0 0 0 0 0 0 0 0 0 0 0 0 0 0 0 0 0 0 0
1 1 1 1 1 1 1 1 1 1 1 1 1 1 1 1 1 0 0 0 0 0 0 0 0 0 0 0 0 0 0 0 0 0 0 0 0 0 0 0 0 0 0
1 1 1 1 1 1 1 1 1 1 1 1 1 1 1 1 1 1 0 0 0 0 0 0 0 0 0 0 0 0 0 0 0 0 0 0 0 0 0 0 0 0 0
1 1 1 1 1 1 1 1 1 1 1 1 1 1 1 1 1 1 0 0 0 0 0 0 0 0 0 0 0 0 0 0 0 0 0 0 0 0 0 0 0 0 0
1 1 1 1 1 1 1 1 1 1 1 1 1 1 1 1 1 1 1 0 0 0 0 0 0 0 0 0 0 0 0 0 0 0 0 0 0 0 0 0 0 0 0
1 1 1 1 1 1 1 1 1 2 2 2 1 1 1 1 1 1 1 1 1 1 1 1 1 1 0 0 0 0 0 0 0 0 0 0 0 0 0 0 0 0 0
1 1 1 1 1 1 1 1 2 2 2 2 1 1 1 1 1 1 1 1 1 1 1 1 1 0 0 0 0 0 0 0 0 0 0 0 0 0 0 0 0 0 0
1 1 1 1 1 1 1 1 1 1 1 1 1 1 1 1 1 1 1 1 1 1 1 1 0 0 0 0 0 0 0 0 0 0 0 0 0 0 0 0 0 0 0
1 1 1 1 1 1 1 1 1 1 1 1 -7 -13 -7 1 1 1 1 1 0 0 0 0 0 0 0 0 0 0 0 0 0 0 0 0 0 0 0 0 0 0 0
1 1 1 1 1 1 0 0 1 1 1 1 -13 -26 -13 1 1 0 0 0 0 0 0 0 0 0 0 0 0 0 0 0 0 0 0 0 0 0 0 0 0 0 0
1 1 1 1 1 0 0 0 0 0 1 1 -7 -13 -7 1 1 0 0 0 0 0 0 0 0 0 0 0 0 0 0 0 0 0 0 0 0 0 0 0 0 0 0
0 0 0 0 0 0 0 0 0 0 0 0 1 1 1 1 1 0 0 0 0 0 0 0 0 0 0 0 0 0 0 0 0 0 0 0 0 0 0 0 0 0 0
0 0 0 0 0 0 0 0 0 0 0 0 0 0 0 1 1 0 0 0 0 0 0 0 0 0 0 0 0 0 0 0 0 0 0 0 0 0 0 0 0 0 0
-0 -0 -0 0 -0 -0 -0 -0 0 0 0 0 0 0 0 0 0 0 0 0 0 0 0 0 0 0 0 0 0 0 0 0 0 0 0 0 0 0 0 0 0 0 0
-0 -0 -0 -0 -0 -0 -0 -0 -0 0 0 0 0 0 0 0 0 0 0 0 0 0 0 0 0 0 0 0 0 0 0 0 0 0 0 0 0 0 0 0 0 0 0
0 0 -0 -0 -0 -0 -0 -0 -0 -0 -0 -0 -0 0 0 0 0 0 0 0 0 0 0 0 0 0 0 0 0 0 0 0 0 0 0 0 0 0 0 0 0 0 0
0 0 0 -0 0 -0 -0 -0 -0 -0 -0 -0 -0 -0 0 0 0 0 0 0 0 0 0 0 0 0 0 0 0 0 0 0 0 0 0 0 0 0 0 0 0 0 0
-0 -0 -0 -0 -0 0 0 0 0 0 0 0 0 0 0 0 0 0 0 0 0 0 0 0 0 0 0 0 0 0 0 0 0 0 0 0 0 0 0 0 0 0 0
0 0 0 0 0 0 0 0 0 0 0 0 0 0 0 0 0 0 0 0 0 0 0 0 0 0 0 0 0 0 0 0 0 0 0 0 0 0 0 0 0 0 0
Wind_Speed
8 9 16 18 18 18 17 16 15 16 16 15 15 16 16 16 15 14 13 12 11 10 9 8 8 8 8 9 9 10 11 11 12 12 13 13 13 13 13 13 12 10 14
12 13 17 18 18 18 17 17 16 16 16 16 16 16 15 15 15 14 13 12 11 10 9 9 9 8 8 8 9 9 10 10 11 12 12 12 13 13 13 12 11 8 13
13 13 16 18 18 18 17 17 17 17 17 16 16 15 15 15 14 14 13 12 11 11 10 9 10 10 9 9 9 9 10 10 11 12 11 7 8 11 13 13 12 13 13
14 12 13 19 19 18 17 17 17 16 16 16 16 15 15 14 14 14 14 13 12 11 11 10 9 10 10 9 9 9 9 10 10 10 5 5 5 9 12 13 13 13 13
13 11 14 22 20 18 17 16 16 16 15 15 15 14 14 13 13 13 13 13 12 10 9 9 9 8 8 8 8 8 7 8 9 8 4 3 1 8 13 14 14 13 13
12 10 13 21 20 18 17 16 15 14 13 13 12 12 11 11 11 11 10 10 10 9 8 8 7 7 7 7 8 8 8 8 7 4 4 4 3 8 12 13 14 14 13
11 8 10 19 18 17 16 15 14 13 12 11 10 9 9 8 8 8 8 8 7 7 7 7 8 8 8 8 8 8 8 9 5 3 3 4 5 8 11 13 13 14 14
10 7 7 16 16 15 14 13 12 11 11 10 9 9 8 8 8 8 8 8 8 9 9 9 9 9 9 9 10 9 9 9 7 5 5 4 6 10 13 13 13 14 15
6 6 4 6 9 13 13 13 12 12 11 11 11 10 10 10 10 10 10 10 10 10 11 11 11 11 11 11 11 10 10 11 7 4 5 5 7 10 14 15 15 15 15
6 4 3 3 3 4 6 11 12 12 12 13 13 13 12 12 12 12 10 11 12 12 13 13 13 13 12 12 12 12 12 10 7 6 5 5 8 10 14 16 17 16 16
5 3 4 3 2 2 3 6 9 11 12 13 12 14 12 6 6 7 10 13 14 14 14 15 15 15 13 11 12 12 11 5 6 6 5 8 11 11 13 15 17 17 17
6 4 4 4 3 1 2 2 3 3 4 6 5 6 5 4 5 7 7 15 16 16 16 16 16 15 12 5 8 11 5 6 6 6 6 12 13 14 14 14 16 18 18
8 6 3 2 1 2 3 3 2 2 2 3 5 5 3 3 3 5 3 6 8 11 8 10 10 7 6 6 6 6 6 6 5 6 8 14 14 15 16 14 14 17 19
10 6 4 5 4 6 6 5 5 4 3 3 4 5 4 3 4 5 5 5 5 4 6 6 5 7 7 8 8 8 8 6 5 5 7 15 15 15 15 15 13 13 17
10 6 7 9 8 8 6 5 4 5 4 5 5 6 7 5 6 6 5 5 6 5 6 5 6 7 6 7 7 9 9 9 9 7 6 14 14 14 14 14 14 14 16
10 10 10 9 8 5 5 4 4 4 4 4 5 6 7 6 6 6 5 5 5 5 5 5 5 4 4 4 6 6 7 7 7 7 6 8 12 12 12 13 14 15 16
4 4 4 4 4 5 5 4 4 3 3 3 4 5 6 6 7 6 5 5 5 4 4 3 3 2 2 3 4 5 4 5 5 6 6 5 6 10 13 14 14 14 14
4 3 3 3 2 2 2 2 2 0 0 2 4 4 6 7 7 6 4 4 3 2 3 3 2 2 2 3 3 3 3 4 6 6 6 6 5 5 9 14 14 14 14
4 4 3 3 3 2 2 1 1 1 1 3 3 4 5 7 7 5 4 3 3 3 3 2 2 2 3 3 3 3 4 4 5 6 6 7 7 7 7 9 14 14 15
6 6 5 5 4 4 3 3 3 3 2 3 3 5 6 6 7 6 4 4 4 3 3 2 3 2 2 3 3 3 3 5 5 5 6 6 6 7 7 8 7 9 14
10 9 7 7 7 5 4 4 3 3 4 4 3 5 6 6 7 7 5 5 4 4 4 4 3 3 2 1 1 2 3 4 5 5 5 4 5 5 5 6 6 6 6
8 7 7 7 7 6 4 3 2 3 4 4 4 4 4 5 6 7 7 6 5 4 4 4 3 2 2 2 2 1 2 3 2 2 2 2 2 2 3 4 5 6 6
6 6 5 5 5 5 5 3 3 3 3 3 4 4 4 4 5 5 7 6 6 6 6 6 5 5 3 2 2 3 3 3 2 2 1 1 2 2 3 4 5 5 6
5 5 5 5 5 5 5 4 4 3 3 4 4 5 6 5 4 4 4 6 7 6 6 6 6 4 4 3 2 3 2 2 2 2 2 2 3 4 4 4 5 5 5
5 5 4 4 4 3 3 2 2 1 1 3 3 5 6 6 5 5 3 3 5 6 7 8 7 6 5 5 4 3 2 2 2 2 3 3 3 4 5 6 5 4 4
6 5 5 4 4 4 3 2 1 2 2 2 2 3 3 3 4 6 6 4 3 4 6 8 9 10 7 6 5 4 4 3 3 3 3 3 4 4 5 5 4 3 3
Wind_Direction
164 158 170 158 151 148 149 151 149 145 143 141 138 137 139 143 148 151 153 154 154 152 149 145 143 138 134 132 132 132 131 131 134 137 139 139 134 129 124 121 120 122 125
150 155 167 160 155 152 152 155 154 151 149 147 145 145 146 149 152 155 155 156 158 159 159 157 155 150 145 144 144 142 142 142 143 145 147 145 142 137 132 129 128 131 131
144 154 164 162 160 157 156 158 159 157 154 151 150 150 152 155 159 161 162 163 164 164 160 157 161 160 158 159 159 157 155 156 155 155 146 145 149 147 144 142 141 137 135
149 155 162 165 164 162 161 163 164 162 158 156 154 156 158 161 163 165 167 170 169 165 164 164 167 168 167 169 171 171 170 168 165 152 132 146 161 162 158 154 153 147 142
152 157 167 169 169 167 166 167 168 167 163 161 160 162 165 165 165 166 169 174 175 172 173 175 176 177 178 181 181 182 184 180 176 151 153 165 195 170 164 162 163 160 153
154 157 170 171 172 172 171 172 172 170 167 165 166 167 169 169 171 172 174 177 181 184 188 192 194 192 193 195 194 193 195 200 193 152 171 182 199 187 174 173 172 168 164
151 153 171 172 174 175 176 176 175 172 169 170 173 176 176 176 178 182 187 192 195 199 203 206 206 204 203 205 208 208 207 210 191 183 193 195 207 216 195 186 183 178 175
145 142 162 172 175 178 180 181 181 177 174 177 182 185 188 189 192 196 202 207 210 213 214 217 221 220 217 215 216 217 220 225 216 203 214 215 219 219 210 200 195 188 183
116 117 128 158 175 182 185 188 189 189 187 189 191 194 199 205 209 212 213 217 221 225 228 229 232 234 232 231 229 228 228 232 232 208 218 215 226 223 215 207 204 200 196
100 103 94 118 142 167 188 197 200 203 201 201 202 202 206 214 219 224 225 229 232 234 238 239 241 243 243 243 240 238 238 241 242 231 224 221 225 228 225 215 208 206 206
105 83 61 71 84 127 185 211 213 217 216 214 213 213 211 214 223 232 236 236 240 243 244 246 249 251 251 251 249 246 245 236 241 244 233 233 233 236 235 227 214 209 207
109 88 53 48 44 62 214 219 228 229 228 218 211 216 208 197 214 230 243 248 247 247 249 251 253 255 257 253 253 251 241 235 238 246 244 242 239 240 243 241 226 216 209
104 98 77 70 153 214 220 216 216 213 219 214 206 206 202 199 215 232 236 253 257 258 253 252 252 244 239 236 237 236 233 232 236 245 249 251 246 243 245 246 239 227 218
113 121 166 200 211 219 217 213 209 205 204 211 212 204 200 209 219 227 232 234 234 240 246 244 240 239 244 248 243 238 234 231 233 237 249 256 258 256 251 247 243 236 229
130 156 203 211 215 219 220 219 217 212 210 216 217 212 209 219 230 230 231 231 230 230 235 239 243 233 230 239 243 242 236 232 233 233 244 255 262 266 261 255 249 248 241
157 185 208 216 217 224 228 222 227 213 208 219 229 227 221 224 232 233 232 231 235 232 233 230 231 212 205 213 231 236 235 232 232 237 243 257 262 268 269 264 261 257 247
192 213 233 238 228 218 218 217 222 202 186 223 241 237 228 225 230 227 225 226 229 223 218 209 204 178 185 204 230 236 235 234 236 243 248 250 259 266 267 266 263 261 254
346 336 312 302 297 256 231 215 235 210 233 253 253 243 233 227 220 214 214 224 219 198 188 182 171 169 192 204 225 240 240 244 247 248 250 250 249 255 261 261 260 256 254
354 348 335 344 349 319 311 311 321 13 313 272 260 246 236 226 210 197 201 209 192 182 183 180 180 177 192 208 225 236 240 241 247 250 251 254 250 248 250 256 259 257 255
11 7 357 353 354 343 341 344 354 345 300 274 261 247 235 221 202 188 190 192 178 174 186 188 192 193 202 207 231 250 258 258 260 257 258 262 260 258 256 255 255 254 251
16 11 4 1 354 353 349 347 342 321 307 298 270 246 232 217 201 189 187 185 179 187 195 185 175 189 206 164 165 291 292 270 261 257 256 259 268 273 270 264 255 246 245
10 7 7 8 360 354 341 311 285 286 290 285 290 288 257 230 210 199 194 189 185 184 186 183 173 175 196 172 168 188 298 320 297 259 253 255 269 290 295 289 274 254 244
357 355 354 355 351 344 340 331 331 331 322 336 340 334 321 285 251 221 204 193 187 183 188 190 183 176 186 199 196 174 189 236 295 310 280 274 280 293 298 296 291 272 252
323 326 329 332 337 343 354 12 23 9 344 337 330 328 334 333 303 268 238 212 196 189 188 190 188 181 166 185 209 218 212 190 199 305 316 313 302 291 291 287 289 283 262
292 290 290 299 312 326 351 16 37 29 299 297 316 338 350 352 356 352 320 258 222 205 198 187 181 187 182 177 183 183 198 208 200 208 280 313 313 285 276 278 279 278 271
280 271 263 262 267 268 268 251 209 220 252 289 317 335 340 340 350 3 357 338 286 244 217 201 190 188 191 184 185 181 176 178 186 193 234 278 295 287 283 279 275 285 291